Leadville, CO

10:16 PM MST on November 16, 2019 (GMT -0700)
Lake County

Weather History for KLXV - September, 2019

Change the Weather History Date:

Tuesday, September 17, 2019

  Actual Average Record
Temperature  
Mean Temperature 48 °F -  
Max Temperature 60 °F 60 °F 73 °F (2018)
Min Temperature 36 °F 31 °F 19 °F (2006)
Degree Days  
Heating Degree Days 17 20  
Month to date heating degree days 223 294  
Since 1 July heating degree days 816 1016  
Cooling Degree Days 0 0  
Month to date cooling degree days 0 0  
Year to date cooling degree days 0 0  
Moisture  
Dew Point 31 °F    
Average Humidity 53    
Maximum Humidity 70    
Minimum Humidity 35    
Precipitation  
Precipitation 0.00 in 0.04 in 0.65 in (2007)
Month to date precipitation 0.31 0.68  
Year to date precipitation 12.85 9.63  
Sea Level Pressure  
Sea Level Pressure 30.06 in    
Wind  
Wind Speed 6 mph (SSW)    
Max Wind Speed 24 mph    
Max Gust Speed 32 mph    
Visibility 6 miles    
Events      
T = Trace of Precipitation, MM = Missing Value Source: NWS Daily Summary

Daily Weather History Graph

Daily Weather History Graph

Search for Another Location

Airport or City:

Astronomy

Sep. 17, 2019 Rise Set
Actual Time 6:48 AM MDT 7:10 PM MDT
Civil Twilight 6:21 AM MDT 7:37 PM MDT
Nautical Twilight 5:49 AM MDT 8:08 PM MDT
Astronomical Twilight 5:17 AM MDT 8:41 PM MDT
Moon 9:16 PM MDT 9:54 AM MDT
Length of Visible Light 13h 16m
Length of Day
12h 22m
Waning Gibbous, 89% of the Moon is Illuminated
Sep 17
Waning Gibbous
Sep 21
Last Quarter
Sep 28
New
Oct 5
First Quarter
Oct 13
Full

Hourly Weather History & Observations

Time (MDT) Temp. Windchill Dew Point Humidity Pressure Visibility Wind Dir Wind Speed Gust Speed Precip Events Conditions
12:53 AM 41.0 °F 39.0 °F 30.9 °F 67% 29.86 in 10.0 mi Variable 3.5 mph - N/A   Clear
1:53 AM 41.0 °F 38.0 °F 30.0 °F 65% 29.86 in 10.0 mi ENE 4.6 mph - N/A   Clear
2:53 AM 43.0 °F 41.3 °F 30.0 °F 60% 29.86 in 10.0 mi Variable 3.5 mph - N/A   Scattered Clouds
3:53 AM 41.0 °F - 28.9 °F 62% 29.83 in 10.0 mi Calm Calm - N/A   Clear
4:53 AM 39.0 °F 34.8 °F 28.9 °F 67% 29.85 in 10.0 mi SE 5.8 mph - N/A   Clear
5:53 AM 37.9 °F 34.4 °F 28.0 °F 68% 29.84 in 10.0 mi East 4.6 mph - N/A   Clear
6:53 AM 37.9 °F 34.4 °F 28.9 °F 70% 29.90 in 10.0 mi NE 4.6 mph - N/A   Mostly Cloudy
7:53 AM 43.0 °F 39.5 °F 30.9 °F 62% 29.88 in 2.0 mi NE 5.8 mph - N/A   Haze
8:05 AM 43.0 °F 40.3 °F 32.0 °F 65% 30.31 in 1.2 mi South 4.6 mph - N/A   Haze
8:30 AM 41.0 °F - 30.9 °F 67% 30.32 in 3.0 mi Calm Calm - N/A   Haze
8:37 AM 42.1 °F - 30.9 °F 65% 30.32 in 9.0 mi Calm Calm - N/A   Partly Cloudy
8:53 AM 43.0 °F 40.3 °F 33.1 °F 68% 29.93 in 8.0 mi East 4.6 mph - N/A   Clear
9:53 AM 52.0 °F - 34.0 °F 50% 29.92 in 10.0 mi North 9.2 mph - N/A   Scattered Clouds
10:53 AM 55.0 °F - 30.9 °F 40% 29.87 in 8.0 mi Variable 3.5 mph - N/A   Mostly Cloudy
11:06 AM 55.0 °F - 30.9 °F 40% 30.31 in 2.5 mi North - - N/A   Haze
11:22 AM 54.0 °F - 32.0 °F 43% 30.32 in 4.0 mi SW 13.8 mph 24.2 mph N/A   Haze
11:48 AM 55.4 °F - 33.8 °F 44% 30.31 in 2.5 mi Variable 5.8 mph - N/A   Haze
11:53 AM 55.0 °F - 34.0 °F 45% 29.88 in 3.0 mi North - - N/A   Haze
12:02 PM 55.9 °F - 30.9 °F 39% 30.30 in 2.5 mi WSW 11.5 mph 19.6 mph N/A   Haze
12:09 PM 55.9 °F - 30.9 °F 39% 30.29 in 9.0 mi SW 15.0 mph 25.3 mph N/A   Mostly Cloudy
12:41 PM 55.9 °F - 30.9 °F 39% 30.29 in 2.5 mi South 15.0 mph 25.3 mph N/A   Haze
12:53 PM 55.0 °F - 33.1 °F 43% 29.89 in 3.0 mi SW 10.4 mph 21.9 mph N/A   Haze
1:25 PM 55.0 °F - 35.1 °F 47% 30.30 in 2.5 mi South 20.7 mph 28.8 mph N/A   Haze
1:42 PM 55.9 °F - 34.0 °F 44% 30.30 in 6.0 mi South 12.7 mph 24.2 mph N/A   Haze
1:53 PM 57.0 °F - 33.1 °F 40% 29.87 in 2.5 mi South 15.0 mph 25.3 mph N/A   Haze
2:00 PM 55.0 °F - 32.0 °F 42% 30.30 in 9.0 mi SSW 10.4 mph 21.9 mph N/A   Mostly Cloudy
2:20 PM 55.0 °F - 32.0 °F 42% 30.29 in 2.0 mi Calm Calm - N/A   Haze
2:28 PM 55.9 °F - 32.0 °F 40% 30.29 in 4.0 mi Variable 5.8 mph - N/A   Haze
2:53 PM 57.9 °F - 33.1 °F 39% 29.83 in 3.0 mi SSW 15.0 mph 23.0 mph N/A   Haze
3:46 PM 57.9 °F - 30.0 °F 35% 30.28 in 1.8 mi SW 10.4 mph - N/A   Haze
3:53 PM 57.9 °F - 30.0 °F 35% 29.84 in 1.8 mi WSW 12.7 mph - N/A   Haze
3:56 PM 57.9 °F - 30.0 °F 35% 30.28 in 4.0 mi West 10.4 mph - N/A   Haze
4:09 PM 57.0 °F - 30.9 °F 37% 30.28 in 1.8 mi SW 10.4 mph - N/A   Haze
4:26 PM 57.9 °F - 30.9 °F 36% 30.28 in 10.0 mi WSW 9.2 mph - N/A   Mostly Cloudy
4:53 PM 57.0 °F - 30.0 °F 36% 29.87 in 10.0 mi SW 4.6 mph - N/A   Mostly Cloudy
5:53 PM 57.0 °F - 30.0 °F 36% 29.87 in 10.0 mi West 6.9 mph 18.4 mph N/A   Partly Cloudy
6:53 PM 55.0 °F - 28.9 °F 37% 29.90 in 6.0 mi Variable 3.5 mph - N/A   Haze
7:53 PM 52.0 °F - 28.9 °F 41% 29.90 in 10.0 mi Calm Calm - N/A   Scattered Clouds
8:53 PM 48.0 °F - 30.0 °F 50% 29.94 in 10.0 mi NNE 3.5 mph - N/A   Partly Cloudy
9:53 PM 45.0 °F 42.6 °F 30.0 °F 56% 29.90 in 10.0 mi ENE 4.6 mph - N/A   Partly Cloudy
10:53 PM 46.9 °F - 32.0 °F 56% 29.88 in 10.0 mi NE 4.6 mph - N/A   Overcast
11:53 PM 42.1 °F 39.2 °F 30.9 °F 65% 29.91 in 10.0 mi East 4.6 mph - N/A   Scattered Clouds